Location: Poughquag
(41.6090°N, 73.6820°W)
Time: 12:28:24
(UTC-04:00)

Tiros 1 despin weight - Pass Details

Date: 02 June 2020
Orbit: 593 x 642 km, 48.2° (Epoch: 07 July)

Event Time Altitude Azimuth Distance (km) Brightness Sun altitude
Rises 08:15:17 0° 179° (S) 2,924 ? 29.7°
Reaches altitude 10° 08:19:58 10° 137° (SE) 2,014 ? 30.6°
Maximum altitude 08:20:32 10° 130° (SE) 2,001 ? 30.7°
Drops below altitude 10° 08:21:06 10° 123° (ESE) 2,013 ? 30.8°
Sets 08:25:46 0° 80° (E) 2,914 ? 31.6°
